Weather in Dimitrovgrad

Serbia     43°01′05″N   22°46′48″E
temp.,
°C
wind,
m/s
gust,
m/s
humid.,
%
clouds,
%
prec.,
mm/h
press.,
hPa
HPBL,
m
9 may, sun
sun923:00+3nw118212 0.0 102512
02:00+2wsw118399 0.0 102610
05:00+1se118347 0.0 102610
08:00+8se22645 0.0 1026337
11:00+13se334376 0.0 1025922
14:00+16se343812 0.0 10231022
17:00+16ese344725 0.0 1022843
20:00+9ese32690 0.0 102422
10 may, mon
mon1023:00+6ese33760 0.0 102541
02:00+5se34900 0.0 102565
05:00+4se34940 0.0 102558
08:00+10se34790 0.0 1024339
11:00+15se34640 0.0 1022707
14:00+19se44545 0.0 1020934
17:00+18se45568 0.0 1019671
20:00+11se337451 0.0 102027
11 may, tue
tue1123:00+8se33765 0.0 102131
02:00+6se33795 0.0 102137
05:00+5se33885 0.0 102035
08:00+11se33735 0.0 1018255
11:00+17se34590 0.0 1016617
14:00+20se34520 0.0 1014874
17:00+20se335414 0.0 1012812
20:00+13se33765 0.0 101239
12 may, wed
wed1223:00+10se338437 0.0 101342
02:00+8se34844 0.0 101256
05:00+7se33916 0.0 101155
08:00+13se34818 0.0 1009324
11:00+18se346744 0.1 1006872
14:00+20ssw236597 3.6 10051069
17:00+18wnw477799 3.1 1004699
20:00+12w229184 5.4 100651
13 may, thu
thu1323:00+11ssw11856 0.1 100711
02:00+8w1187100 0.1 100810
05:00+7ssw118557 0.0 100810
08:00+12sw007156 0.0 1007241
11:00+16wsw136093 0.6 10061184
14:00+16w356396 2.0 10061234
17:00+14wnw587493 2.3 1007744
20:00+9w34805 2.8 100954